World > North America > United States > Texas

Ironton, Texas Regional Weather

Lat: 31.92N, Lon: 95.37W
Wx Zone: TXZ149Web Search

Pass this page to a friend. Tell them to point their camera at the QR Code near the bottom of this page.

Feedback


°F Click to change Ironton hourly weather to Imperial units.Click to change Ironton hourly weather to Metric units. °C
Ironton Weather Map
UTC Time: 4/11/2021, 14:54
Your Time:

Ironton, TX Regional Weather

Expires:202104111500;;386856
ASUS44 KFWD 111415
RWRTX 
NORTH TEXAS HOURLY WEATHER ROUNDUP
NATIONAL WEATHER SERVICE FORT WORTH TX
900 AM CDT SUN APR 11 2021

NOTE: "FAIR" INDICATES FEW OR NO CLOUDS BELOW 12,000 FEET WITH NO
SIGNIFICANT WEATHER AND/OR OBSTRUCTIONS TO VISIBILITY.


TXZ095>097-106>112-122>126-135>138-148>153-164>167-111500-
EAST TEXAS
  
CITY           SKY/WX    TMP DP  RH WIND       PRES   REMARKS
PARIS          FAIR      57  46  66 SW8       29.79R                  
SULPHUR SPRNGS FAIR      59  47  63 CALM      29.81R                  
MOUNT PLEASANT FAIR      52  49  88 CALM      29.79R                  
GILMER         FAIR      58  46  64 S6        29.80S                  
MINEOLA        FAIR      55  50  82 CALM      29.80R                  
TYLER          FAIR      58  46  64 S7        29.79S                  
LONGVIEW       FAIR      57  48  72 S3        29.79R                  
MARSHALL       FAIR      52  48  84 CALM      29.82S                  
ATHENS         FAIR      54  45  71 CALM      29.79R                  
PALESTINE      FAIR      57  46  67 CALM      29.81R                  
JACKSONVILLE   FAIR      61  46  57 CALM      29.82R                  
HENDERSON      FAIR      55  47  74 CALM      29.81R                  
CENTER         FAIR      57  50  77 SE5       29.82R                  
NACOGDOCHES    FAIR      57  47  69 SE5       29.82R                  
LUFKIN         FAIR      56  50  80 SE5       29.81R                  
$$

SUPPLEMENTAL OBSERVATIONS (NWS FORT WORTH AREA)
  
CITY           SKY/WX    TMP DP  RH WIND       PRES   REMARKS
CADDO GRASSLND   N/A     57  45  62 S8          N/A                   
LBJ GRASSLAND    N/A     57  36  44 S5          N/A                   
POSSUM KINGDOM   N/A     61  36  39 SE7         N/A                   
GRANBURY         N/A     59  46  63 NE2         N/A                   
MCGREGOR         N/A     57  48  72 SW5         N/A                   
TEMPLE           N/A     54  39  58 CALM        N/A                   
PALESTINE        N/A     63  50  63 E1          N/A                   
$$

SUPPLEMENTAL OBSERVATIONS (NWS NORMAN AREA)
  
CITY           SKY/WX    TMP DP  RH WIND       PRES   REMARKS
GOODLETT         N/A     55  33  43 S7        29.73F                  
ODELL            N/A     58  35  42 S9        29.76S                  
CROWELL          N/A     56  35  44 CALM      29.76R                  
KNOX CITY        N/A     57  34  42 CALM      29.74S                  
SEYMOUR          N/A     59  37  44 S7        29.75S                  
$$

SUPPLEMENTAL OBSERVATIONS (NWS SAN ANGELO AREA)
  
CITY           SKY/WX    TMP DP  RH WIND       PRES   REMARKS
WEINERT          N/A     60  35  39 S5        29.75S                  
HASKELL          N/A     59  36  43 S9        29.73F                  
THROCKMORTON     N/A     60  37  41 S7        29.75F                  
STAMFORD         N/A     64  36  35 S15       29.75S                  
CLYDE            N/A     62  33  32 S22       29.76S                  
HAMBY            N/A     64  34  32 S14         N/A                   
IVIE RESERVOIR   N/A     61  34  36 SE7         N/A                   
COLORADO BEND    N/A     63  36  36 S10         N/A                   
$$

SUPPLEMENTAL OBSERVATIONS (NWS SHREVEPORT AREA)
  
CITY           SKY/WX    TMP DP  RH WIND       PRES   REMARKS
TEXARKANA        N/A     57  50  77 S1          N/A                   
LINDEN           N/A     61  48  63 S2          N/A                   
CADDO LAKE       N/A     57  52  82 CALM        N/A                   
LUFKIN           N/A     59  50  72 MISG        N/A                   
N SABINE NF      N/A     61  55  82 MISG        N/A                   
$$

SUPPLEMENTAL OBSERVATIONS ARE A COLLECTION OF AUTOMATED INSTRUMENTS
THAT ARE MAINTAINED BY A VARIETY OF FEDERAL AND STATE AGENCIES. 
CERTAIN ELEMENTS...SUCH AS HUMIDITY VALUES AND SUSTAINED WIND 
SPEEDS...MAY BE APPROXIMATED.

  

SKY/WX - Weather  TMP - Temperature  DP - Dew Point  RH - Relative Humidity
WIND - Wind Direction/Speed PRES - Barometric Pressure VSB - Visibility
WCI - Wind Chill Index E13G22 Wind - East Wind 13 mph/Gusts of 22 mph